Regional Weather Roundup
Issued by NWS

Home | Current Version | Previous Version | Graphics & Text | Print | Product List | Glossary On
Versions: 1 2 3 4 5 6 7 8 9 10 11 12 13 14 15 16 17 18 19 20 21 22 23 24 25 26 27 28 29 30 31 32 33 34 35 36 37 38 39 40 41 42 43 44 45 46 47 48 49 50
000
ASUS43 KMPX 291710
RWRMN
WEATHER ROUNDUP FOR MINNESOTA
NATIONAL WEATHER SERVICE TWIN CITIES/CHANHASSEN MN
1200 PM CDT WED MAR 29 2017


NOTE: "FAIR" INDICATES FEW OR NO CLOUDS BELOW 12,000 FEET WITH NO
SIGNIFICANT WEATHER AND/OR OBSTRUCTIONS TO VISIBILITY. N/A MEANS
CURRENT SKY AND/OR WEATHER CONDITIONS ARE NOT AVAILABLE.

MNZ060>063-068>070-291800-
   Twin Cities Metro

CITY           SKY/WX    TMP DP  RH WIND       PRES   REMARKS
TWIN CITIES    CLOUDY    50  33  52 SE9       30.24F
ST PAUL        CLOUDY    49  34  56 S8        30.26F
CRYSTAL        CLOUDY    50  31  48 S10       30.23F
BLAINE         CLOUDY    52  34  50 SE7       30.24F
LAKEVILLE      CLOUDY    46  36  66 E8        30.23F
EDEN PRAIRIE   CLOUDY    50  33  52 SE8       30.23S
SOUTH ST PAUL  CLOUDY    48  33  55 SE5       30.24F
LAKE ELMO      FAIR      50  34  53 SE5       30.26F
$$
MNZ001>005-007-008-013>017-022>024-027-028-291800-
   Northwest Minnesota

CITY           SKY/WX    TMP DP  RH WIND       PRES   REMARKS
BEMIDJI        PTSUNNY   43  30  59 SE8       30.21S
HALLOCK        SUNNY     48  41  76 S13       30.13F
ROSEAU         SUNNY     54  37  54 SE8       30.16F
WARROAD        SUNNY     46  36  66 E5        30.18F
THIEF RVR FALL CLOUDY    49  35  58 S9        30.17F
CROOKSTON      CLOUDY    50  39  66 S10       30.16F
FOSSTON        CLOUDY    54  34  47 S7        30.17F
DETROIT LAKES  CLOUDY    45  32  61 SE10      30.19F
MOORHEAD       CLOUDY    52  37  58 S12       30.17F
PARK RAPIDS    CLOUDY    44  28  53 SE7       30.20F
MAHNOMEN       FAIR      53  34  49 S10       30.17S
$$
MNZ006-009>011-018-025>026-291800-
   North Central Minnesota

CITY           SKY/WX    TMP DP  RH WIND       PRES   REMARKS
BAUDETTE       CLOUDY    48  29  47 SE8       30.20F
FLAG ISLAND    SUNNY     36  28  75 S8        30.19F
INTL FALLS     CLOUDY    43  27  53 SE9       30.24F
WASKISH        CLOUDY    48  30  49 SE10      30.20F
BIG FORK       CLOUDY    46  28  49 S8        30.24S
LONGVILLE      CLOUDY    43  28  56 SE8       30.23F
GRAND RAPIDS   CLOUDY    41  29  62 SE8       30.27F
CRANE LAKE     CLOUDY    41  27  56 CALM      30.29F
ORR            CLOUDY    43  25  49 CALM      30.24F
COOK           CLOUDY    43  28  56 SE6       30.27S
WALKER         FAIR      39  29  66 E5        30.22F
$$
MNZ012-019>021-037-291800-
   Northeast Minnesota

CITY           SKY/WX    TMP DP  RH WIND       PRES   REMARKS
DULUTH         PTSUNNY   37  31  78 E12       30.29F
ELY            CLOUDY    41  27  56 SE8       30.29S
HIBBING        CLOUDY    40  28  62 SE10      30.27S
EVELETH        CLOUDY    42  23  46 E7        30.29S
DULUTH HARBOR  CLOUDY    37  34  87 NE20      30.34F
TWO HARBORS    PTSUNNY   39  32  75 NE12      30.31S
GRAND MARAIS     N/A     36  29  75 NE13G21   30.40R
G MARAIS ARPRT CLOUDY    32  21  64 E8        30.35R WCI  25
$$
MNZ029>031-032-039>041-046>048-054>057-064-291800-
   West Central Minnesota

CITY           SKY/WX    TMP DP  RH WIND       PRES   REMARKS
FERGUS FALLS   CLOUDY    52  34  50 SE7       30.20F
WHEATON        CLOUDY    52  37  58 SE10      30.18F
MORRIS         CLOUDY    54  37  54 SE12      30.16F
ALEXANDRIA     CLOUDY    49  33  54 SE10      30.20F
ELBOW LAKE     FAIR      51  35  54 E8        30.18F
WADENA         CLOUDY    45  30  57 E8        30.20F
GLENWOOD       CLOUDY    52  36  54 SE10      30.20F
APPLETON       CLOUDY    54  37  54 CALM      30.17F
BENSON         PTSUNNY   55  34  44 S9        30.20S
ORTONVILLE     CLOUDY    50  37  62 SE8       30.17F
MADISON        CLOUDY    55  41  58 SE9       30.16F
WILLMAR        FAIR      52  39  62 SE12      30.20F
$$
MNZ033>034-036-042>043-049>051-058-059-291800-
   Central Minnesota

CITY           SKY/WX    TMP DP  RH WIND       PRES   REMARKS
ST CLOUD       CLOUDY    45  34  65 E6        30.23F
SAUK CENTRE    FAIR      46  34  62 E8        30.21F
PAYNESVILLE    CLOUDY    47  35  63 SE7       30.22F
AITKIN         CLOUDY    45  28  53 E5        30.24S
PINE RIVER     CLOUDY    41  30  65 E8        30.26F
BRAINERD       CLOUDY    43  30  60 E6        30.24S
STAPLES        CLOUDY    45  30  57 E7        30.21F
LONG PRAIRIE   FAIR      45  32  61 E6        30.21F
LITTLE FALLS   CLOUDY    45  32  61 SE3       30.22F
LITCHFIELD     CLOUDY    50  39  66 SE8       30.21F
BUFFALO        CLOUDY    48  34  59 E7        30.24F
MAPLE LAKE     CLOUDY    47  37  68 E5        30.24F
HUTCHINSON     MOSUNNY   51  39  65 E10       30.22F
$$
MNZ037-044-045-052-053-291800-
   East Central Minnesota

CITY           SKY/WX    TMP DP  RH WIND       PRES   REMARKS
PRINCETON      CLOUDY    46  34  61 NE5       30.25F
MORA           CLOUDY    43  32  65 E3        30.28S
CAMBRIDGE      CLOUDY    46  34  61 E5        30.24S
RUSH CITY      CLOUDY    45  32  61 CALM      30.27S
MOOSE LAKE     CLOUDY    41  32  70 E5        30.26F
CLOQUET        CLOUDY    36  30  80 E12       30.29S
MCGREGOR       CLOUDY    43  32  65 E9        30.26F
$$
MNZ071>073-080-081-089-090-097-098-291800-
   Southwest Minnesota

CITY           SKY/WX    TMP DP  RH WIND       PRES   REMARKS
MONTEVIDEO     CLOUDY    54  39  58 S10       30.18F
GRANITE FALLS  CLOUDY    54  40  58 E10       30.19F
CANBY          CLOUDY    52  40  63 SE5       30.17F
MARSHALL       CLOUDY    51  39  63 E7        30.17F
REDWOOD FALLS  CLOUDY    52  34  50 SE9       30.18F
OLIVIA         CLOUDY    52  37  58 SE9       30.18F
PIPESTONE      CLOUDY    50  36  57 SE9       30.13F
WINDOM         CLOUDY    48  39  71 SE13      30.18S
WORTHINGTON    CLOUDY    45  39  79 E18       30.15F
JACKSON        CLOUDY    45  37  76 E14       30.17F
TRACY          CLOUDY    51  42  71 E9        30.16F
SLAYTON        CLOUDY    47  40  76 E16       30.16S
$$
MNZ065>067-074>077-082>085-091>093-291800-
   South Central Minnesota

CITY           SKY/WX    TMP DP  RH WIND       PRES   REMARKS
MANKATO        CLOUDY    47  35  63 SE12      30.22R
NEW ULM        CLOUDY    48  34  57 SE10      30.21R
ST JAMES       CLOUDY    46  37  71 SE12      30.21S
FAIRMONT       LGT RAIN  46  39  76 E17       30.17F
GLENCOE        CLOUDY    51  38  61 E10       30.21F
FARIBAULT      CLOUDY    46  37  71 E8        30.23S
OWATONNA       CLOUDY    46  36  66 SE13      30.22R
WASECA         CLOUDY    45  36  70 SE16      30.23S
ALBERT LEA     CLOUDY    45  37  76 SE15      30.21S
$$
MNZ078>079-086>088-094>096-291800-
   Southeast Minnesota

CITY           SKY/WX    TMP DP  RH WIND       PRES   REMARKS
ROCHESTER      LGT RAIN  42  38  85 SE12      30.23S
RED WING       CLOUDY    48  32  53 SE7       30.24F
STANTON        CLOUDY    48  36  62 SE7       30.23S
DODGE CENTER   CLOUDY    43  36  75 SE12      30.22S
WINONA         CLOUDY    45  34  65 SE7       30.26F
AUSTIN         CLOUDY    45  37  76 E14       30.19F
PRESTON        CLOUDY    41  36  83 E5        30.23S
$$
ABBREVIATIONS USED IN REMARKS
   TC - TEMPERATURES IN CELSIUS
  WCI - WIND CHILL INDEX
   HX - HEAT INDEX
  VSB - VISIBILITY
$$




USA.gov is the U.S. government's official web portal to all federal, state and local government web resources and services.